| time (UTC) | temp F | wind direction | speed knots | gust knots | rain 1hr in | rain 24hr in | rain mn in | humidity % | barometer mb |
| 20260505004026 | 65 | 165 | 3.5 | 11.3 | 0.00 | 0.00 | 0.00 | 50 | 1008.9 |
| 20260505003505 | 65 | 166 | 3.5 | 11.3 | 0.00 | 0.00 | 0.00 | 49 | 1008.9 |
| 20260505003004 | 65 | 168 | 3.5 | 8.7 | 0.00 | 0.00 | 0.00 | 48 | 1008.8 |
| 20260505002505 | 65 | 164 | 3.5 | 12.2 | 0.00 | 0.00 | 0.00 | 48 | 1008.7 |
| 20260505002005 | 65 | 166 | 3.5 | 12.2 | 0.00 | 0.00 | 0.00 | 49 | 1008.7 |
| 20260505001505 | 66 | 167 | 3.5 | 17.4 | 0.00 | 0.00 | 0.00 | 48 | 1008.6 |
| 20260505001026 | 66 | 165 | 5.2 | 17.4 | 0.00 | 0.00 | 0.00 | 48 | 1008.5 |
| 20260505000505 | 66 | 168 | 3.5 | 13.9 | 0.00 | 0.00 | 0.00 | 48 | 1008.5 |
| 20260505000005 | 66 | 177 | 3.5 | 13.9 | 0.00 | 0.00 | 0.00 | 48 | 1008.6 |
| 20260504235505 | 67 | 177 | 3.5 | 11.3 | 0.00 | 0.00 | 0.00 | 47 | 1008.5 |
| 20260504235005 | 67 | 173 | 5.2 | 17.4 | 0.00 | 0.00 | 0.00 | 46 | 1008.5 |
| 20260504234505 | 67 | 177 | 5.2 | 17.4 | 0.00 | 0.00 | 0.00 | 47 | 1008.4 |
| 20260504234025 | 67 | 183 | 3.5 | 13.9 | 0.00 | 0.00 | 0.00 | 46 | 1008.3 |
| 20260504233505 | 67 | 192 | 2.6 | 6.1 | 0.00 | 0.00 | 0.00 | 47 | 1008.2 |
| 20260504233005 | 68 | 188 | 2.6 | 10.4 | 0.00 | 0.00 | 0.00 | 45 | 1008.1 |
| 20260504232504 | 68 | 189 | 2.6 | 10.4 | 0.00 | 0.00 | 0.00 | 45 | 1008.0 |
| 20260504232025 | 68 | 198 | 3.5 | 7.8 | 0.00 | 0.00 | 0.00 | 44 | 1008.0 |
| 20260504231504 | 68 | 200 | 3.5 | 14.8 | 0.00 | 0.00 | 0.00 | 45 | 1007.9 |
| 20260504231005 | 68 | 204 | 3.5 | 14.8 | 0.00 | 0.00 | 0.00 | 45 | 1007.9 |
| 20260504230505 | 68 | 197 | 3.5 | 8.7 | 0.00 | 0.00 | 0.00 | 45 | 1007.9 |
| 20260504230026 | 69 | 185 | 5.2 | 12.2 | 0.00 | 0.00 | 0.00 | 44 | 1007.8 |
| 20260504225525 | 69 | 180 | 5.2 | 12.2 | 0.00 | 0.00 | 0.00 | 44 | 1007.8 |
| 20260504225026 | 69 | 188 | 3.5 | 10.4 | 0.00 | 0.00 | 0.00 | 43 | 1007.7 |
| 20260504224505 | 69 | 188 | 3.5 | 8.7 | 0.00 | 0.00 | 0.00 | 43 | 1007.6 |
| 20260504224004 | 69 | 183 | 3.5 | 10.4 | 0.00 | 0.00 | 0.00 | 43 | 1007.6 |
| 20260504223505 | 69 | 179 | 5.2 | 14.8 | 0.00 | 0.00 | 0.00 | 43 | 1007.7 |
| 20260504223004 | 70 | 177 | 3.5 | 14.8 | 0.00 | 0.00 | 0.00 | 43 | 1007.6 |
| 20260504222504 | 70 | 198 | 3.5 | 11.3 | 0.00 | 0.00 | 0.00 | 42 | 1007.6 |
| 20260504222004 | 70 | 204 | 3.5 | 11.3 | 0.00 | 0.00 | 0.00 | 43 | 1007.7 |
| 20260504221504 | 70 | 212 | 3.5 | 8.7 | 0.00 | 0.00 | 0.00 | 42 | 1007.7 |
| 20260504221025 | 70 | 226 | 3.5 | 8.7 | 0.00 | 0.00 | 0.00 | 41 | 1007.7 |
| 20260504220505 | 70 | 211 | 3.5 | 10.4 | 0.00 | 0.00 | 0.00 | 41 | 1007.9 |
| 20260504220004 | 70 | 211 | 5.2 | 10.4 | 0.00 | 0.00 | 0.00 | 42 | 1007.8 |
| 20260504215504 | 70 | 217 | 5.2 | 11.3 | 0.00 | 0.00 | 0.00 | 41 | 1007.9 |
| 20260504215004 | 70 | 202 | 3.5 | 12.2 | 0.00 | 0.00 | 0.00 | 41 | 1007.8 |
| 20260504214504 | 70 | 192 | 5.2 | 16.5 | 0.00 | 0.00 | 0.00 | 43 | 1007.8 |
| 20260504214004 | 70 | 191 | 5.2 | 16.5 | 0.00 | 0.00 | 0.00 | 43 | 1007.7 |
| 20260504213504 | 70 | 200 | 3.5 | 10.4 | 0.00 | 0.00 | 0.00 | 41 | 1007.7 |
| 20260504213004 | 71 | 213 | 3.5 | 11.3 | 0.00 | 0.00 | 0.00 | 41 | 1007.9 |
| 20260504212505 | 71 | 211 | 3.5 | 11.3 | 0.00 | 0.00 | 0.00 | 41 | 1007.9 |
| 20260504212004 | 71 | 193 | 3.5 | 12.2 | 0.00 | 0.00 | 0.00 | 41 | 1008.0 |
| 20260504211504 | 71 | 182 | 5.2 | 12.2 | 0.00 | 0.00 | 0.00 | 43 | 1008.0 |
| 20260504211004 | 72 | 188 | 3.5 | 8.7 | 0.00 | 0.00 | 0.00 | 40 | 1008.1 |
| 20260504210504 | 72 | 201 | 3.5 | 10.4 | 0.00 | 0.00 | 0.00 | 42 | 1008.2 |
| 20260504210004 | 72 | 206 | 2.6 | 10.4 | 0.00 | 0.00 | 0.00 | 41 | 1008.4 |
| 20260504205504 | 72 | 193 | 2.6 | 11.3 | 0.00 | 0.00 | 0.00 | 40 | 1008.3 |
| 20260504205025 | 72 | 203 | 3.5 | 11.3 | 0.00 | 0.00 | 0.00 | 40 | 1008.5 |
| 20260504204505 | 72 | 222 | 2.6 | 11.3 | 0.00 | 0.00 | 0.00 | 41 | 1008.6 |
| 20260504204004 | 72 | 201 | 3.5 | 10.4 | 0.00 | 0.00 | 0.00 | 40 | 1008.5 |
| 20260504203504 | 72 | 200 | 5.2 | 10.4 | 0.00 | 0.00 | 0.00 | 40 | 1008.5 |
| 20260504203004 | 72 | 204 | 3.5 | 10.4 | 0.00 | 0.00 | 0.00 | 40 | 1008.6 |
| 20260504202504 | 71 | 176 | 3.5 | 13.9 | 0.00 | 0.00 | 0.00 | 44 | 1008.6 |
| 20260504202004 | 71 | 177 | 5.2 | 13.9 | 0.00 | 0.00 | 0.00 | 41 | 1008.6 |
| 20260504201505 | 71 | 188 | 5.2 | 11.3 | 0.00 | 0.00 | 0.00 | 40 | 1008.8 |
| 20260504201004 | 71 | 195 | 5.2 | 12.2 | 0.00 | 0.00 | 0.00 | 42 | 1008.8 |
| 20260504200505 | 71 | 206 | 3.5 | 12.2 | 0.00 | 0.00 | 0.00 | 41 | 1008.9 |
| 20260504200005 | 71 | 203 | 3.5 | 13.9 | 0.00 | 0.00 | 0.00 | 43 | 1008.8 |
| 20260504195504 | 70 | 194 | 5.2 | 13.9 | 0.00 | 0.00 | 0.00 | 43 | 1008.9 |
| 20260504195005 | 70 | 193 | 3.5 | 10.4 | 0.00 | 0.00 | 0.00 | 44 | 1009.0 |
| 20260504194504 | 69 | 199 | 2.6 | 12.2 | 0.00 | 0.00 | 0.00 | 45 | 1009.1 |
| 20260504194004 | 69 | 183 | 3.5 | 12.2 | 0.00 | 0.00 | 0.00 | 42 | 1009.2 |
| 20260504193504 | 69 | 180 | 3.5 | 8.7 | 0.00 | 0.00 | 0.00 | 46 | 1009.2 |
| 20260504193004 | 69 | 177 | 5.2 | 14.8 | 0.00 | 0.00 | 0.00 | 43 | 1009.2 |
| 20260504192504 | 70 | 191 | 5.2 | 14.8 | 0.00 | 0.00 | 0.00 | 43 | 1009.2 |
| 20260504192025 | 70 | 212 | 3.5 | 11.3 | 0.00 | 0.00 | 0.00 | 45 | 1009.2 |
| 20260504191504 | 70 | 202 | 3.5 | 13.9 | 0.00 | 0.00 | 0.00 | 43 | 1009.3 |
| 20260504191025 | 70 | 203 | 5.2 | 16.5 | 0.00 | 0.00 | 0.00 | 45 | 1009.3 |
| 20260504190526 | 71 | 211 | 3.5 | 16.5 | 0.00 | 0.00 | 0.00 | 43 | 1009.4 |
| 20260504190004 | 72 | 226 | 3.5 | 10.4 | 0.00 | 0.00 | 0.00 | 43 | 1009.4 |
| 20260504185504 | 71 | 225 | 3.5 | 10.4 | 0.00 | 0.00 | 0.00 | 40 | 1009.6 |
| 20260504185004 | 71 | 229 | 3.5 | 10.4 | 0.00 | 0.00 | 0.00 | 43 | 1009.5 |
| 20260504184525 | 71 | 220 | 3.5 | 12.2 | 0.00 | 0.00 | 0.00 | 39 | 1009.6 |
| 20260504184004 | 71 | 205 | 6.1 | 12.2 | 0.00 | 0.00 | 0.00 | 40 | 1009.6 |
| 20260504183504 | 71 | 194 | 6.1 | 16.5 | 0.00 | 0.00 | 0.00 | 41 | 1009.6 |
| 20260504183025 | 71 | 181 | 6.1 | 16.5 | 0.00 | 0.00 | 0.00 | 43 | 1009.5 |
| 20260504182504 | 71 | 184 | 6.1 | 16.5 | 0.00 | 0.00 | 0.00 | 42 | 1009.6 |
| 20260504182004 | 71 | 207 | 5.2 | 16.5 | 0.00 | 0.00 | 0.00 | 42 | 1009.7 |
| 20260504181504 | 71 | 218 | 5.2 | 16.5 | 0.00 | 0.00 | 0.00 | 41 | 1009.6 |
| 20260504181004 | 71 | 196 | 5.2 | 12.2 | 0.00 | 0.00 | 0.00 | 44 | 1009.7 |
| 20260504180505 | 70 | 179 | 5.2 | 12.2 | 0.00 | 0.00 | 0.00 | 45 | 1009.6 |
| 20260504180025 | 70 | 199 | 5.2 | 14.8 | 0.00 | 0.00 | 0.00 | 42 | 1009.8 |
| 20260504175504 | 70 | 230 | 3.5 | 14.8 | 0.00 | 0.00 | 0.00 | 43 | 1009.9 |
| 20260504175004 | 70 | 223 | 3.5 | 10.4 | 0.00 | 0.00 | 0.00 | 41 | 1010.1 |
| 20260504174504 | 70 | 207 | 5.2 | 11.3 | 0.00 | 0.00 | 0.00 | 46 | 1009.9 |
| 20260504174025 | 70 | 197 | 3.5 | 11.3 | 0.00 | 0.00 | 0.00 | 45 | 1010.0 |
| 20260504173504 | 69 | 194 | 3.5 | 10.4 | 0.00 | 0.00 | 0.00 | 47 | 1010.1 |
| 20260504173004 | 69 | 181 | 5.2 | 13.9 | 0.00 | 0.00 | 0.00 | 41 | 1010.0 |
| 20260504172525 | 69 | 186 | 5.2 | 13.9 | 0.00 | 0.00 | 0.00 | 41 | 1010.3 |
| 20260504172004 | 69 | 203 | 3.5 | 12.2 | 0.00 | 0.00 | 0.00 | 45 | 1010.3 |
| 20260504171504 | 68 | 198 | 6.1 | 13.9 | 0.00 | 0.00 | 0.00 | 45 | 1010.4 |
| 20260504171004 | 68 | 194 | 7.8 | 30.4 | 0.00 | 0.00 | 0.00 | 44 | 1010.6 |
| 20260504170504 | 68 | 189 | 6.1 | 30.4 | 0.00 | 0.00 | 0.00 | 44 | 1010.6 |
| 20260504151004 | 63 | 199 | 5.2 | 10.4 | 0.00 | 0.00 | 0.00 | 49 | 1012.0 |
| 20260504150504 | 62 | 194 | 5.2 | 11.3 | 0.00 | 0.00 | 0.00 | 48 | 1012.1 |
| 20260504141004 | 57 | 172 | 5.2 | 11.3 | 0.00 | 0.00 | 0.00 | 50 | 1012.5 |
| 20260504140504 | 57 | 186 | 3.5 | 10.4 | 0.00 | 0.00 | 0.00 | 50 | 1012.5 |
| 20260504130504 | 52 | 181 | 3.5 | 14.8 | 0.00 | 0.00 | 0.00 | 56 | 1012.9 |
| 20260504110503 | 44 | 169 | 2.6 | 6.1 | 0.00 | 0.00 | 0.00 | 68 | 1013.2 |
| 20260504100503 | 44 | 171 | 2.6 | 7.8 | 0.00 | 0.00 | 0.00 | 66 | 1012.9 |
| 20260504082003 | 44 | 182 | 2.6 | 5.2 | 0.00 | 0.00 | 0.00 | 66 | 1013.3 |
| 20260504081503 | 44 | 171 | 0.9 | 5.2 | 0.00 | 0.00 | 0.00 | 65 | 1013.4 |
| 20260504081003 | 44 | 170 | 0.9 | 6.1 | 0.00 | 0.00 | 0.00 | 66 | 1013.3 |
| 20260504080503 | 44 | 172 | 0.9 | 6.1 | 0.00 | 0.00 | 0.00 | 66 | 1013.3 |
| 20260504050505 | 46 | 219 | 0.9 | 3.5 | 0.00 | 0.00 | 0.00 | 62 | 1012.9 |
| 20260504050005 | 46 | 221 | 0.9 | 3.5 | 0.00 | 0.00 | 0.00 | 61 | 1013.0 |
| 20260504045505 | 46 | 225 | 0.9 | 2.6 | 0.00 | 0.00 | 0.00 | 61 | 1013.0 |
| 20260504045005 | 46 | 225 | 0.0 | 2.6 | 0.00 | 0.00 | 0.00 | 60 | 1013.0 |
| 20260504044505 | 46 | 202 | 0.0 | 0.9 | 0.00 | 0.00 | 0.00 | 59 | 1013.0 |
| 20260504044005 | 46 | 0 | 0.0 | 0.0 | 0.00 | 0.00 | 0.00 | 60 | 1012.9 |
| 20260504043505 | 46 | 202 | 0.0 | 2.6 | 0.00 | 0.00 | 0.00 | 60 | 1012.9 |
| 20260504043005 | 46 | 202 | 0.0 | 2.6 | 0.00 | 0.00 | 0.00 | 61 | 1013.0 |
| 20260504042526 | 46 | 0 | 0.0 | 0.0 | 0.00 | 0.00 | 0.00 | 63 | 1012.9 |
| 20260504042005 | 46 | 0 | 0.0 | 0.0 | 0.00 | 0.00 | 0.00 | 63 | 1012.9 |
| 20260504041505 | 46 | 0 | 0.0 | 0.0 | 0.00 | 0.00 | 0.00 | 60 | 1012.8 |
| 20260504041005 | 46 | 0 | 0.0 | 0.0 | 0.00 | 0.00 | 0.00 | 64 | 1012.8 |
| 20260504040505 | 46 | 0 | 0.0 | 0.0 | 0.00 | 0.00 | 0.00 | 61 | 1012.8 |
| 20260504040005 | 46 | 0 | 0.0 | 0.0 | 0.00 | 0.00 | 0.00 | 60 | 1012.8 |
| 20260504035505 | 46 | 0 | 0.0 | 0.0 | 0.00 | 0.00 | 0.00 | 59 | 1012.8 |
| 20260504035005 | 46 | 0 | 0.0 | 0.0 | 0.00 | 0.00 | 0.00 | 60 | 1012.8 |
| 20260504034505 | 46 | 0 | 0.0 | 0.0 | 0.00 | 0.00 | 0.00 | 61 | 1012.8 |
| 20260504034005 | 46 | 0 | 0.0 | 0.0 | 0.00 | 0.00 | 0.00 | 59 | 1012.8 |
| 20260504033505 | 46 | 0 | 0.0 | 0.0 | 0.00 | 0.00 | 0.00 | 60 | 1012.7 |
| 20260504033026 | 46 | 0 | 0.0 | 0.0 | 0.00 | 0.00 | 0.00 | 61 | 1012.7 |
| 20260504032504 | 46 | 0 | 0.0 | 0.0 | 0.00 | 0.00 | 0.00 | 60 | 1012.8 |
| 20260504032005 | 46 | 0 | 0.0 | 0.0 | 0.00 | 0.00 | 0.00 | 59 | 1012.7 |
| 20260504031525 | 46 | 0 | 0.0 | 0.0 | 0.00 | 0.00 | 0.00 | 58 | 1012.7 |
| 20260504031005 | 47 | 0 | 0.0 | 0.0 | 0.00 | 0.00 | 0.00 | 58 | 1012.7 |
| 20260504030505 | 47 | 0 | 0.0 | 0.0 | 0.00 | 0.00 | 0.00 | 61 | 1012.7 |
| 20260504030005 | 47 | 0 | 0.0 | 0.0 | 0.00 | 0.00 | 0.00 | 61 | 1012.8 |
| 20260504025505 | 47 | 0 | 0.0 | 0.0 | 0.00 | 0.00 | 0.00 | 58 | 1012.8 |
| 20260504025005 | 47 | 0 | 0.0 | 0.0 | 0.00 | 0.00 | 0.00 | 58 | 1012.8 |
| 20260504024504 | 48 | 0 | 0.0 | 0.0 | 0.00 | 0.00 | 0.00 | 59 | 1012.7 |
| 20260504024005 | 48 | 0 | 0.0 | 0.0 | 0.00 | 0.00 | 0.00 | 58 | 1012.8 |
| 20260504023505 | 48 | 0 | 0.0 | 0.0 | 0.00 | 0.00 | 0.00 | 58 | 1012.8 |
| 20260504023005 | 48 | 0 | 0.0 | 0.0 | 0.00 | 0.00 | 0.00 | 57 | 1012.7 |
| 20260504022505 | 48 | 0 | 0.0 | 0.0 | 0.00 | 0.00 | 0.00 | 55 | 1012.7 |
| 20260504022026 | 48 | 0 | 0.0 | 0.0 | 0.00 | 0.00 | 0.00 | 54 | 1012.7 |
| 20260504021505 | 48 | 0 | 0.0 | 0.0 | 0.00 | 0.00 | 0.00 | 55 | 1012.7 |
| 20260504021026 | 49 | 0 | 0.0 | 0.0 | 0.00 | 0.00 | 0.00 | 55 | 1012.7 |
| 20260504020504 | 49 | 0 | 0.0 | 0.0 | 0.00 | 0.00 | 0.00 | 56 | 1012.8 |
| 20260504020005 | 49 | 0 | 0.0 | 0.0 | 0.00 | 0.00 | 0.00 | 56 | 1012.8 |
| 20260504015525 | 49 | 0 | 0.0 | 0.0 | 0.00 | 0.00 | 0.00 | 54 | 1012.7 |
| 20260504015004 | 49 | 279 | 0.0 | 0.9 | 0.00 | 0.00 | 0.00 | 55 | 1012.7 |
| 20260504014525 | 49 | 279 | 0.0 | 0.9 | 0.00 | 0.00 | 0.00 | 54 | 1012.7 |
| 20260504014026 | 49 | 0 | 0.0 | 0.0 | 0.00 | 0.00 | 0.00 | 54 | 1012.5 |
| 20260504013525 | 49 | 279 | 0.0 | 0.9 | 0.00 | 0.00 | 0.00 | 54 | 1012.5 |
| 20260504013004 | 50 | 279 | 0.0 | 0.9 | 0.00 | 0.00 | 0.00 | 54 | 1012.5 |
| 20260504012505 | 50 | 0 | 0.0 | 0.0 | 0.00 | 0.00 | 0.00 | 52 | 1012.4 |
| 20260504012005 | 50 | 279 | 0.0 | 0.9 | 0.00 | 0.00 | 0.00 | 53 | 1012.4 |
| 20260504011504 | 50 | 279 | 0.0 | 0.9 | 0.00 | 0.00 | 0.00 | 53 | 1012.3 |
| 20260504011005 | 50 | 0 | 0.0 | 0.0 | 0.00 | 0.00 | 0.00 | 53 | 1012.3 |
| 20260504010527 | 51 | 0 | 0.0 | 0.0 | 0.00 | 0.00 | 0.00 | 52 | 1012.3 |
| 20260504010004 | 51 | 0 | 0.0 | 0.0 | 0.00 | 0.00 | 0.00 | 52 | 1012.1 |
| 20260504005504 | 51 | 0 | 0.0 | 0.0 | 0.00 | 0.00 | 0.00 | 52 | 1012.0 |
| 20260504005004 | 52 | 0 | 0.0 | 0.0 | 0.00 | 0.00 | 0.00 | 52 | 1012.1 |
| 20260504004504 | 52 | 279 | 0.0 | 0.9 | 0.00 | 0.00 | 0.00 | 51 | 1012.1 |